This is the latest recevied weather packets stored in our database for station/object LU3HGB-WX. If no packets are shown the sender has not sent any weather packets the latest 10 day(s).
| Time | Temp. | Humidity | Pressure | Rain* | Wind** | Luminosity | Snow |
|---|---|---|---|---|---|---|---|
| 1777311160 | 17.78° C | 27% | 1018 hPa | 0 mm | - | 680 W/m² | - |
| 1777310860 | 17.78° C | 33% | 1019 hPa | 0 mm | - | 687 W/m² | - |
| 1777310559 | 17.22° C | 28% | 1019 hPa | 0 mm | - | 694 W/m² | - |
| 1777310260 | 17.22° C | 34% | 1019 hPa | 0 mm | - | 700 W/m² | - |
| 1777309960 | 17.22° C | 31% | 1019 hPa | 0 mm | - | 707 W/m² | - |
| 1777309660 | 17.22° C | 32% | 1019 hPa | 0 mm | - | 714 W/m² | - |
| 1777309360 | 17.22° C | 32% | 1019 hPa | 0 mm | - | 716 W/m² | - |
| 1777309059 | 17.22° C | 32% | 1019 hPa | 0 mm | - | 718 W/m² | - |
| 1777308763 | 17.22° C | 31% | 1019 hPa | 0 mm | - | 722 W/m² | - |
| 1777308460 | 16.67° C | 33% | 1019 hPa | 0 mm | - | 724 W/m² | - |
| 1777308160 | 16.67° C | 30% | 1019 hPa | 0 mm | - | 727 W/m² | - |
| 1777307860 | 16.67° C | 36% | 1020 hPa | 0 mm | - | 730 W/m² | - |
| 1777307562 | 16.11° C | 30% | 1020 hPa | 0 mm | - | 734 W/m² | - |
| 1777307259 | 16.11° C | 30% | 1020 hPa | 0 mm | - | 733 W/m² | - |
| 1777306693 | 15.56° C | 34% | 1020 hPa | 0 mm | - | 734 W/m² | - |
| 1777306360 | 15.56° C | 31% | 1020 hPa | 0 mm | - | 736 W/m² | - |
| 1777306060 | 15.56° C | 31% | 1020 hPa | 0 mm | - | 733 W/m² | - |
| 1777305759 | 15.56° C | 33% | 1020 hPa | 0 mm | - | 734 W/m² | - |
| 1777305461 | 15.56° C | 33% | 1020 hPa | 0 mm | - | 730 W/m² | - |
| 1777305159 | 15.56° C | 29% | 1021 hPa | 0 mm | - | 726 W/m² | - |
| 1777304860 | 15° C | 35% | 1021 hPa | 0 mm | - | 721 W/m² | - |
| 1777304560 | 15° C | 34% | 1021 hPa | 0 mm | - | 718 W/m² | - |
| 1777304260 | 14.44° C | 32% | 1021 hPa | 0 mm | - | 709 W/m² | - |
| 1777303959 | 14.44° C | 34% | 1021 hPa | 0 mm | - | 703 W/m² | - |
| 1777303660 | 14.44° C | 36% | 1021 hPa | 0 mm | - | 701 W/m² | - |
* Rain latest hour (hover to see other rain measurements)
** Current wind speed in m/s (hover to see current wind gust speed)